Regional Weather Roundup
Issued by NWS Wakefield, VA

Home | Current Version | Previous Version | Graphics & Text | Print | Product List | Glossary On
Versions: 1 2 3 4 5 6 7 8 9 10 11 12 13 14 15 16 17 18 19 20 21 22 23 24 25 26 27 28 29 30 31 32 33 34 35 36 37 38 39 40 41 42 43 44 45 46 47 48 49 50
000
ASUS41 KAKQ 290014
RWRAKQ

REGIONAL WEATHER ROUNDUP
NATIONAL WEATHER SERVICE WAKEFIELD VA
800 PM EDT SAT MAR 28 2015

Note: "fair" indicates few or no clouds below 12,000 feet with no
significant weather and/or obstructions to visibility. * = Denotes
station may not report precipitation (e.g., rain,snow,etc.),
thunder or fog.

VAZ042-051-052>054-056-290100-
NORTHERN VIRGINIA

CITY           SKY/WX    TMP DP  RH WIND       PRES   REMARKS
WASH NATIONAL  CLOUDY    34  10  37 NW15G21   30.17R WCI  24
DULLES         MOCLDY    30   7  37 NW17G23   30.16R WCI  18
FORT BELVOIR   CLOUDY    33   8  35 NW13G21   30.17R WCI  23
QUANTICO       CLOUDY    34   7  32 N13G25    30.19R WCI  25
FREDERICKSBRG* PTCLDY    33   9  36 NW9       30.17R
STAFFORD*      MOCLDY    31   6  34 NW13G21   30.21R WCI  21
WARRENTON      PTCLDY    32  15  50 NW13G18   30.17R WCI  22
CULPEPER*      PTCLDY    34   7  32 NW8       30.18R
MANASSAS*      CLOUDY    30  10  43 NW16G23   30.17R WCI  19
LEESBURG*      MOCLDY    32  10  40 NW16G24   30.18R WCI  21
WINCHESTER     PTCLDY    30   1  29 NW8G17    30.16R
FRONT ROYAL*   CLOUDY    30   9  40 NW3       30.15R
LURAY*         FAIR      32  12  43 NW8       30.16R
$$

VAZ048-049-060>072-079>083-290100-
CENTRAL AND SOUTH CENTRAL VIRGINIA

CITY           SKY/WX    TMP DP  RH WIND       PRES   REMARKS
RICHMOND       PTCLDY    34   7  32 N15       30.17R WCI  24
CHESTERFIELD*  FAIR      34   3  27 N13       30.17R WCI  25
PETERSBURG*    CLEAR     36  10  34 N8        30.16R
HANOVER        CLEAR     32   6  33 N7        30.19R
TAPPAHANNOCK*  CLEAR     32   1  25 NW9G16    30.17R
QUINTON*       FAIR      34   7  32 NW8G18    30.17R
CHARLOTTSVILLE CLEAR     31   6  35 NW9G16    30.17R
GORDONSVILLE*  FAIR      32   6  34 CALM      30.16R
ORANGE*        PTCLDY    32  10  40 CALM      30.18R
LOUISA*        CLEAR     32   7  34 NW5       30.15R
BUMPASS*       FAIR      31   7  36 NW3       30.16R
FARMVILLE*     CLEAR     35   8  31 N6        30.16R
CREWE*         FAIR      34   7  31 MISG      30.16R
FORT PICKETT*  FAIR      35  11  37 N12       30.15R
CHASE CITY*    FAIR      38  13  35 W3        30.15R
CLARKSVILLE*   FAIR      36   9  32 NW7       30.15R
SOUTH HILL*    CLEAR     36  10  34 NW3       30.20R
LAWRENCEVILLE* FAIR      36  14  40 CALM      30.13R
EMPORIA*       CLEAR     36  18  48 W3        30.16R
$$

VAZ088>098-290100-
SOUTHEAST VIRGINIA

CITY           SKY/WX    TMP DP  RH WIND       PRES   REMARKS
NORFOLK        MOCLDY    38  17  42 N16       30.12R
VIRGINIA BEACH MOCLDY    40  15  36 N12       30.12R
NORFOLK NAVAL  PTCLDY    41  12  30 N17       30.14R
WEST POINT*    CLEAR     35   4  27 NW7       30.19R
SALUDA*        FAIR      33   9  37 N20G28    30.15R WCI  21
NEWPORT NEWS   NOT AVBL
LANGLEY AFB    PTCLDY    36  12  36 N13       30.13R
FORT EUSTIS    CLEAR     36  13  38 N8G26     30.13R
WILLIAMSBURG*  CLEAR     37  16  41 N7G18     30.16R
HR EXEC AP*    FAIR      37  16  41 NW3       30.14R
FRANKLIN*      CLOUDY    36  16  43 NW5       30.14R
WAKEFIELD      CLEAR     37  11  34 N8G20     30.14R
$$

VAZ020-022-025-037-045-290100-
WEST CENTRAL AND SOUTHWEST VIRGINIA

CITY           SKY/WX    TMP DP  RH WIND       PRES   REMARKS
STAUNTON*      CLEAR     28   7  40 NW12      30.17R WCI  18
WAYNESBORO*    FAIR      27   6  41 NW10G21   30.14R WCI  17
HOT SPRINGS VA CLEAR     17   6  62 NW13G20   29.99R WCI   3
LYNCHBURG      CLEAR     32   7  35 VRB5      30.17R
DANVILLE       CLEAR     38  10  31 N12       30.17R
SOUTH BOSTON*  FAIR      37   5  26 NW9G16    30.17R
MARTINSVILLE   CLEAR     35   7  32 N6        30.20R
ROANOKE        CLEAR     32   4  30 NW10      30.18R WCI  24
BLACKSBURG     CLEAR     27   4  38 NW14G22   30.16R WCI  16
DUBLIN*        CLEAR     31   6  35 NW8       30.15R
MARION*        CLEAR     31   2  29 W15G22    30.15R WCI  20
HILLSVILLE*    CLEAR     29   7  39 NW10      30.09R WCI  20
RICHLANDS*     FAIR      29   2  32 NW10      30.14R WCI  19
WISE*          CLEAR     32   5  32 NW7       30.16R
ABINGDON*      CLEAR     35   5  28 N3        30.17R
$$

MDZ021>025-VAZ099-100-290100-
SOUTHERN MARYLAND AND THE DELMARVA PENINSULA

CITY           SKY/WX    TMP DP  RH WIND       PRES   REMARKS
PATUXENT RIVER PTCLDY    32   9  38 W13G20    30.14R WCI  22
BAY BRIDGE APT   N/A     32  10  40 NW22G29   30.13R WCI  19
LEONARDTOWN    PTCLDY    32   9  37 W7        30.16R
DOVER          PTCLDY    32  16  52 W17G24    30.09R WCI  21
GEORGETOWN     PTCLDY    31  20  63 W6        30.10R
EASTON         CLEAR     32  18  55 NW16G29   30.15R WCI  21
CAMBRIDGE      PTCLDY    36  18  48 NW16G25   30.12R
SALISBURY      CLOUDY    32  19  58 NW20      30.12R WCI  20
OCEAN CITY     MOCLDY    30  20  66 NW12G20   30.11R WCI  20
WALLOPS ISLAND MOCLDY    33  13  43 N14G20    30.12R WCI  23
ACCOMACK*      CLEAR     32  12  43 NW13G22   30.13R WCI  22
$$

NCZ012>017-030>032-290100-
NORTH CENTRAL AND EASTERN NORTH CAROLINA

CITY           SKY/WX    TMP DP  RH WIND       PRES   REMARKS
ROANOKE RAPIDS FAIR      37  16  41 NW5       30.14R
RALEIGH        CLEAR     40   9  28 VRB6      30.15R
ELIZABETH CITY CLEAR     36  20  52 NW6       30.14R
AHOSKIE*       PTCLDY    35  21  55 CALM      30.15R
EDENTON*       PTCLDY    39  23  53 NW5       30.14R
CURRITUCK*     CLEAR     38  19  46 CALM      30.13R
KILL DEVIL HLS PTCLDY    38  21  49 NW7       30.11R
MANTEO         PTCLDY    39  20  45 NW10G18   30.13R
CAPE HATTERAS  CLEAR     39  26  59 VRB6      30.11R
TARBORO*       FAIR      40  16  37 NW3       30.15R
GOLDSBORO      CLEAR     43  21  42 NW3       30.12R
WASHINGTON     PTCLDY    40  19  43 NW3       30.14R
GREENVILLE     CLEAR     41  18  38 CALM      30.16R
NEW BERN       CLEAR     42  20  41 NW8       30.14R
WILMINGTON     CLEAR     45  27  49 NW8       30.11R
$$

VAZ048-290100-
ELSEWHERE

CITY           SKY/WX    TMP DP  RH WIND       PRES   REMARKS
HARRISBURG PA  MOCLDY    31  10  41 NW9       30.10R
BALTIMORE      PTCLDY    30   8  39 NW10      30.13R WCI  21
ANNAPOLIS      PTCLDY    32  10  40 NW14G22   30.14R WCI  22
ANDREWS AFB    MOCLDY    31   9  39 NW14      30.14R WCI  20
PHILADELPHIA   PTCLDY    33  11  39 NW22      30.08R WCI  21
HENDERSON NC   CLEAR     36   6  28 NW6       30.16R
GREENSBORO     PTCLDY    40   6  24 N7        30.13R
ROCKY MOUNT    CLEAR     41  15  35 NW9       30.14R
$$

VAZ100-290100-
MARINE

STATION/POSITION TIME  TEMP    WIND        PRES    WAVE   SWELL
                       AIR SEA DIR/SP/G            HT/PER HT/PER
                 (UTC) (F)     (DEG/KT/KT) (MB)    (FT/S) (FT/S)
BRANDYWINE LGT   2300   34 40  330/ 18/ 26 1016.8R
CAPE MAY NJ      2300   35 44  310/ 24/ 28 1016.2R
LEWES DE         2300   34 43  300/ 22/ 24 1017.4R
15NM E FENWICK I 2350   34 40              1017.6R   5/ 5
OCEAN-CITY-INLET 2300   33 40  310/ 12/ 16 1017.7R
WACHAPREAGUE VA  2300   35 47  310/  6/ 12 1018.7R
THOMAS POINT MD  0000                        N/A
COVE POINT MD    2300   32     330/ 10/ 14 1019.3R
SOLOMONS ISLAND  2300      44                N/A
BISHOPS HEAD MD  2312          320/ 16/ 17   N/A
PINEY POINT MD   2300          340/ 24/ 27   N/A
CAMBRIDGE MD     2300   34 44  290/ 13/ 19 1019.1R
LEWISETTA VA     2300   35 46              1020.0R
RAPPAHANNOCK LGT 2300          330/ 26/ 29 1019.3R
STINGRAY PT      2300   37 44  330/ 21/ 25   N/A     3/ 3
YORK RVR RNG VA  2300   37     360/ 24/ 26 1017.9R
YORKTOWN VA      2300   39 47  330/ 15/ 20 1018.7R
DOMINION TERM VA 2300   40     340/ 14/ 18 1018.7R
KIPTOPEKE VA     2300      49  350/ 16/ 23   N/A
CHES BAY BRIDGE  2300   40 44  300/ 16/ 21 1018.3R
CAPE HENRY VA    2300   39     310/ 15/ 19 1017.3R
CHESAPEAKE LGHT  2300   38     360/ 16/ 17 1019.1R
WILLOUBY STN VA  2300   40     330/ 17/ 20 1019.3R
S CRANEY ISL VA  2300          290/  7/ 13 1018.8R
CAPE HENRY BUOY  2328      40                N/A     4/ 7   2/11
1ST LANDING BUOY 2300   40     320/ 16/ 19 1018.1R   2/ 3
OFFSHORE WE BUOY 2311      40                N/A     5/ 7   3/ 7
64NM E OF VA BCH 2350   39 57  330/ 16/ 21 1018.8R   6/ 7
DUCK PIER NC     2300   40 42  310/ 15/ 20 1018.1R
44056 DUCK FRF   2311      42                N/A     4/ 8   2/11
OREGON INLET NC  2300   40 46  310/ 12/ 17 1019.0R
HATTERAS NC      2300   43 54  340/ 15/ 19 1018.7R
CAPE LOOKOUT NC  0000   47     330/ 17/ 21 1019.2R
$$



USA.gov is the U.S. government's official web portal to all federal, state and local government web resources and services.